map of TAK home
TAK - Airport
Location
City:  Takamatsu, Shikoku Island, Kagawa, Japan
Name:Takamatsu Airport
ICAO:RJOT
IATA:TAK

Details
Type:Airport (Aerodrome, Airfield)
Use:Public/Civil
Latitude:3412'51"N (34.214167)
Longitude:13400'56"E (134.015556)
Datum:WGS 1984
Elevation:607 ft (185 m)
Variation:7.55W (WMM2015 magnetic declination)
-0.07 annual change
Runways:1
Longest:8200 × 200 ft (2499 × 61 m), paved

Time
Time Zone:UTC+9
Local Time:

Weather
METAR:RJOT 281200Z 25003KT 9999 FEW015 SCT035 BKN/// 23/23 Q1014
TAF:RJOT 281106Z 2812/2918 23004KT 8000 FEW005 SCT020 BKN040
BECMG 2818/2820 3000 -RA BR FEW002 SCT005 BKN008
TEMPO 2820/2903 0700 RA FG FEW000 SCT003 BKN005
TEMPO 2912/2918 0700 -RA FG FEW000 SCT003 BKN005

Related Locations
Nearby:
Farthest:SSMT: 12081 mi / 19442 km
Mostardas, RS, BR

Find:

   beyond  
but within

Other Information
Maps:
NOTAMs:
Links:
Sources:

  
flag of Japan
flag of Kagawa
flag of Takamatsu
  

Sectional Chart

Flight Planning
at skyvector.com

Satellite Image

Google Maps Satellite view

 

Copyright © 2004-2017 Karl L. Swartz. All rights reserved.
The Great Circle Mapper name and logo are trademarks of the Great Circle Mapper.
All other trademarks mentioned herein belong to their respective owners.
Please see credits for attibutions and further copyright information.

  Follow gcmap on Facebook Follow gcmap on Twitter Follow gcmap on Google+ GCmap on LinkedIn

hCard Microformat

Geo Microformat